Jaffrey, NH

4:13 PM EDT on June 25, 2017 (GMT -0400)
Jaffrey Airport-Silver Ranch

Weather History for KAFN - May, 2013

Change the Weather History Date:

Monday, May 20, 2013

  Actual Average Record
Temperature  
Mean Temperature 64 °F -  
Max Temperature 77 °F 62 °F 84 °F (2012)
Min Temperature 53 °F 41 °F 28 °F (2002)
Degree Days  
Heating Degree Days 1    
Growing Degree Days 14 (Base 50)    
Moisture  
Dew Point 56 °F    
Average Humidity 82    
Maximum Humidity 100    
Minimum Humidity 53    
Precipitation  
Precipitation 0.02 in - - ()
Sea Level Pressure  
Sea Level Pressure 30.07 in    
Wind  
Wind Speed 5 mph (SW)    
Max Wind Speed 9 mph    
Max Gust Speed 16 mph    
Visibility 7 miles    
Events      
Averages and records for this station are not official NWS values.
T = Trace of Precipitation, MM = Missing Value Source: NWS Daily Summary

Daily Weather History Graph

Daily Weather History Graph

Search for Another Location

Airport or City:

Trip Planner

Search our weather history database for the weather conditions in past years. The results will help you decide how hot, cold, wet, or windy it might be!

Date:

Astronomy

May. 20, 2013 Rise Set
Actual Time 5:20 AM EDT 8:09 PM EDT
Civil Twilight 4:47 AM EDT 8:42 PM EDT
Nautical Twilight 4:05 AM EDT 9:24 PM EDT
Astronomical Twilight 3:17 AM EDT 10:13 PM EDT
Moon 3:07 PM EDT (5/20) 2:20 AM EDT (5/20)
Length of Visible Light 15h 55m
Length of Day
14h 49m
Waxing Gibbous, 75% of the Moon is Illuminated
May 20
Waxing Gibbous
May 25
Full
May 31
Last Quarter
Jun 8
New
Jun 16
First Quarter

Hourly Weather History & Observations

Time (EDT) Temp. Dew Point Humidity Pressure Visibility Wind Dir Wind Speed Gust Speed Precip Events Conditions
12:47 AM 53.6 °F 51.8 °F 94% 30.19 in 2.5 mi South 5.8 mph - 0.01 in   Overcast
12:52 AM 54.0 °F 52.0 °F 93% 30.20 in 2.5 mi South 8.1 mph - 0.01 in   Overcast
1:08 AM 53.6 °F 51.8 °F 94% 30.17 in 3.0 mi South 6.9 mph - N/A   Overcast
1:52 AM 54.0 °F 53.1 °F 97% 30.17 in 3.0 mi South 4.6 mph - 0.01 in   Overcast
2:16 AM 53.6 °F 53.6 °F 100% 30.15 in 2.5 mi SSW 4.6 mph - N/A   Overcast
2:24 AM 53.6 °F 53.6 °F 100% 30.14 in 2.5 mi SSW 6.9 mph - N/A   Overcast
2:52 AM 54.0 °F 53.1 °F 97% 30.14 in 2.5 mi SSW 4.6 mph - N/A   Overcast
3:03 AM 53.6 °F 53.6 °F 100% 30.12 in 3.0 mi SSW 4.6 mph - N/A   Overcast
3:10 AM 53.6 °F 53.6 °F 100% 30.11 in 2.5 mi SSW 6.9 mph - N/A   Overcast
3:42 AM 53.6 °F 53.6 °F 100% 30.11 in 3.0 mi SSW 5.8 mph - N/A   Overcast
3:52 AM 54.0 °F 53.1 °F 97% 30.12 in 3.0 mi SSW 8.1 mph - N/A   Overcast
4:52 AM 54.0 °F 53.1 °F 97% 30.10 in 5.0 mi SSW 6.9 mph - N/A   Overcast
6:52 AM 55.0 °F 54.0 °F 96% 30.08 in 7.0 mi SSW 6.9 mph - N/A   Overcast
7:52 AM 57.0 °F 55.0 °F 93% 30.09 in 10.0 mi Variable 4.6 mph - N/A   Overcast
8:52 AM 60.1 °F 55.9 °F 86% 30.08 in 10.0 mi SW 8.1 mph - N/A   Mostly Cloudy
9:04 AM 60.8 °F 55.4 °F 82% 30.05 in 10.0 mi WSW 8.1 mph 16.1 mph N/A   Scattered Clouds
9:30 AM 62.6 °F 57.2 °F 82% 30.06 in 10.0 mi Calm Calm - N/A   Mostly Cloudy
9:52 AM 62.1 °F 57.0 °F 84% 30.07 in 10.0 mi Variable 3.5 mph - N/A   Overcast
10:30 AM 64.4 °F 57.2 °F 77% 30.05 in 10.0 mi West 5.8 mph - N/A   Mostly Cloudy
10:52 AM 66.0 °F 57.0 °F 73% 30.07 in 10.0 mi Variable 5.8 mph - N/A   Overcast
11:29 AM 66.2 °F 57.2 °F 73% 30.04 in 10.0 mi SSW 5.8 mph - N/A   Scattered Clouds
11:52 AM 69.1 °F 57.0 °F 65% 30.04 in 10.0 mi Variable 4.6 mph - N/A   Scattered Clouds
12:07 PM 68.0 °F 57.2 °F 68% 30.03 in 10.0 mi Variable 5.8 mph - N/A   Mostly Cloudy
12:52 PM 70.0 °F 57.9 °F 65% 30.03 in 10.0 mi WSW 4.6 mph - N/A   Overcast
1:40 PM 71.6 °F 59.0 °F 64% 30.00 in 10.0 mi Variable 5.8 mph - N/A   Overcast
1:52 PM 73.0 °F 59.0 °F 61% 30.01 in 10.0 mi SW 5.8 mph - N/A   Overcast
2:52 PM 75.9 °F 59.0 °F 56% 30.00 in 10.0 mi NW 8.1 mph - N/A   Partly Cloudy
3:52 PM 75.9 °F 59.0 °F 56% 29.99 in 10.0 mi NNW 6.9 mph - N/A   Partly Cloudy
4:52 PM 75.9 °F 57.9 °F 54% 29.99 in 10.0 mi WNW 9.2 mph - N/A   Scattered Clouds
5:52 PM 75.0 °F 57.0 °F 53% 30.00 in 10.0 mi Variable 4.6 mph - N/A   Clear
6:52 PM 73.9 °F 59.0 °F 59% 29.99 in 10.0 mi Calm Calm - N/A   Partly Cloudy
7:52 PM 69.1 °F 60.1 °F 73% 30.01 in 10.0 mi Calm Calm - N/A   Partly Cloudy
8:52 PM 64.0 °F 60.1 °F 87% 30.01 in 10.0 mi Calm Calm - N/A   Partly Cloudy
9:52 PM 62.1 °F 59.0 °F 90% 30.02 in 8.0 mi Calm Calm - N/A   Clear
10:52 PM 60.1 °F 57.9 °F 93% 30.02 in 7.0 mi Calm Calm - N/A   Scattered Clouds
11:52 PM 60.1 °F 57.9 °F 93% 30.02 in 6.0 mi Calm Calm - N/A   Mostly Cloudy